TimeCST,TemperatureF,Dew PointF,Humidity,Sea Level PressureIn,VisibilityMPH,Wind Direction,Wind SpeedMPH,Gust SpeedMPH,PrecipitationIn,Events,Conditions,WindDirDegrees,DateUTC
12:15 AM,17.1,7.7,67,30.36,10.0,NNE,3.5,-,N/A,,Clear,30,2013-02-21 06:15:00
12:35 AM,16.5,7.7,68,30.37,10.0,NNE,4.6,-,N/A,,Clear,30,2013-02-21 06:35:00
12:55 AM,15.8,7.7,70,30.36,10.0,NE,6.9,-,N/A,,Clear,40,2013-02-21 06:55:00
1:15 AM,15.8,7.5,70,30.36,10.0,NE,6.9,-,N/A,,Clear,40,2013-02-21 07:15:00
1:35 AM,16.3,7.7,69,30.37,10.0,NE,6.9,-,N/A,,Clear,50,2013-02-21 07:35:00
1:55 AM,16.5,7.5,68,30.36,10.0,NE,6.9,-,N/A,,Clear,50,2013-02-21 07:55:00
2:15 AM,16.3,7.5,68,30.36,10.0,NE,9.2,-,N/A,,Clear,50,2013-02-21 08:15:00
2:35 AM,15.8,7.3,69,30.36,10.0,NE,8.1,-,N/A,,Clear,50,2013-02-21 08:35:00
2:55 AM,15.6,7.3,70,30.36,10.0,NE,8.1,-,N/A,,Clear,50,2013-02-21 08:55:00
3:15 AM,15.1,7.2,71,30.37,10.0,ENE,6.9,-,N/A,,Clear,60,2013-02-21 09:15:00
3:35 AM,14.9,7.2,71,30.38,10.0,ENE,4.6,-,N/A,,Clear,60,2013-02-21 09:35:00
3:55 AM,14.7,7.2,72,30.39,10.0,NE,5.8,-,N/A,,Clear,50,2013-02-21 09:55:00
4:15 AM,14.7,7.3,73,30.39,10.0,NE,4.6,-,N/A,,Clear,50,2013-02-21 10:15:00
4:35 AM,14.5,7.3,73,30.40,10.0,ENE,3.5,-,N/A,,Clear,60,2013-02-21 10:35:00
4:55 AM,14.4,7.0,73,30.40,10.0,NE,3.5,-,N/A,,Clear,50,2013-02-21 10:55:00
5:15 AM,13.5,7.0,75,30.38,10.0,NE,5.8,-,N/A,,Clear,40,2013-02-21 11:15:00
5:55 AM,12.9,6.3,75,30.33,10.0,NE,9.2,-,N/A,,Clear,50,2013-02-21 11:55:00
6:15 AM,12.6,5.7,74,30.33,10.0,ENE,8.1,-,N/A,,Clear,70,2013-02-21 12:15:00
6:35 AM,12.7,5.5,73,30.39,10.0,East,4.6,-,N/A,,Clear,100,2013-02-21 12:35:00
6:55 AM,12.2,5.4,74,30.37,10.0,ENE,5.8,-,N/A,,Clear,60,2013-02-21 12:55:00
7:15 AM,12.6,5.5,74,30.40,10.0,Calm,Calm,-,N/A,,Clear,0,2013-02-21 13:15:00
7:35 AM,12.9,5.9,74,30.38,10.0,NE,5.8,-,N/A,,Scattered Clouds,40,2013-02-21 13:35:00
7:55 AM,13.8,6.8,74,30.39,10.0,ENE,5.8,-,N/A,,Mostly Cloudy,60,2013-02-21 13:55:00
8:15 AM,14.7,8.2,75,30.41,7.0,East,5.8,-,N/A,,Overcast,90,2013-02-21 14:15:00
8:35 AM,14.9,8.4,76,30.39,5.0,East,9.2,-,N/A,,Overcast,80,2013-02-21 14:35:00
8:55 AM,15.6,9.1,76,30.39,10.0,ENE,9.2,-,N/A,,Overcast,60,2013-02-21 14:55:00
9:15 AM,15.8,9.3,76,30.38,10.0,ENE,8.1,-,N/A,,Overcast,60,2013-02-21 15:15:00
9:35 AM,16.5,9.9,75,30.38,10.0,NE,9.2,-,N/A,,Overcast,50,2013-02-21 15:35:00
9:55 AM,17.1,10.6,76,30.37,10.0,ENE,11.5,-,N/A,,Overcast,70,2013-02-21 15:55:00
10:15 AM,17.2,10.9,76,30.37,10.0,ENE,8.1,-,N/A,,Overcast,60,2013-02-21 16:15:00
10:35 AM,18.1,12.4,78,30.37,10.0,East,9.2,-,N/A,,Overcast,80,2013-02-21 16:35:00
10:55 AM,18.5,11.5,74,30.37,10.0,East,10.4,-,N/A,,Overcast,80,2013-02-21 16:55:00
11:15 AM,19.2,12.4,75,30.36,10.0,ENE,10.4,-,N/A,,Overcast,70,2013-02-21 17:15:00
11:35 AM,20.1,12.9,74,30.35,10.0,East,11.5,-,N/A,,Overcast,80,2013-02-21 17:35:00
11:55 AM,21.0,13.8,74,30.33,10.0,ENE,9.2,-,N/A,,Mostly Cloudy,60,2013-02-21 17:55:00
12:15 PM,21.2,14.9,77,30.32,10.0,ENE,10.4,-,N/A,,Overcast,70,2013-02-21 18:15:00
12:35 PM,21.2,16.0,80,30.31,10.0,NE,6.9,-,N/A,,Overcast,50,2013-02-21 18:35:00
12:55 PM,20.7,16.2,83,30.29,10.0,NE,8.1,-,N/A,,Overcast,50,2013-02-21 18:55:00
1:15 PM,21.0,16.7,83,30.28,10.0,NE,9.2,-,N/A,,Overcast,40,2013-02-21 19:15:00
1:35 PM,21.7,18.0,85,30.27,10.0,ENE,8.1,-,N/A,,Overcast,70,2013-02-21 19:35:00
1:55 PM,22.1,18.5,86,30.25,10.0,NE,8.1,-,N/A,,Overcast,40,2013-02-21 19:55:00
2:15 PM,22.5,18.5,85,30.25,10.0,NE,8.1,-,N/A,,Overcast,50,2013-02-21 20:15:00
2:35 PM,22.8,18.9,85,30.25,10.0,NE,9.2,-,N/A,,Overcast,40,2013-02-21 20:35:00
2:55 PM,23.0,19.4,86,30.25,10.0,NE,12.7,-,N/A,,Overcast,40,2013-02-21 20:55:00
3:15 PM,23.5,20.1,87,30.24,10.0,NE,11.5,17.3,N/A,,Overcast,50,2013-02-21 21:15:00
3:35 PM,23.5,20.3,87,30.23,7.0,NE,15.0,20.7,N/A,,Overcast,50,2013-02-21 21:35:00
3:55 PM,23.4,21.2,91,30.23,7.0,NE,10.4,-,N/A,,Overcast,50,2013-02-21 21:55:00
4:15 PM,23.4,21.6,93,30.22,7.0,NE,12.7,18.4,N/A,,Overcast,50,2013-02-21 22:15:00
4:35 PM,23.5,21.9,94,30.22,5.0,ENE,15.0,19.6,N/A,,Overcast,60,2013-02-21 22:35:00
4:55 PM,23.4,21.9,94,30.20,3.0,ENE,16.1,-,N/A,,Overcast,60,2013-02-21 22:55:00
5:15 PM,23.5,22.1,94,30.18,2.5,NE,12.7,-,N/A,,Overcast,50,2013-02-21 23:15:00
5:35 PM,23.7,22.6,96,30.17,2.5,ENE,12.7,-,N/A,,Overcast,60,2013-02-21 23:35:00
5:55 PM,24.3,23.0,95,30.17,3.0,ENE,12.7,19.6,N/A,,Overcast,60,2013-02-21 23:55:00
6:15 PM,24.4,23.4,96,30.16,4.0,ENE,15.0,-,N/A,,Overcast,60,2013-02-22 00:15:00
6:35 PM,24.8,23.7,96,30.15,4.0,ENE,12.7,-,N/A,,Overcast,60,2013-02-22 00:35:00
6:55 PM,25.3,24.1,95,30.15,4.0,ENE,12.7,-,N/A,,Overcast,70,2013-02-22 00:55:00
7:15 PM,25.7,24.8,96,30.14,5.0,ENE,16.1,21.9,N/A,,Overcast,70,2013-02-22 01:15:00
7:35 PM,26.4,25.3,96,30.12,7.0,East,16.1,20.7,N/A,,Overcast,80,2013-02-22 01:35:00
7:55 PM,26.6,25.5,96,30.09,10.0,East,17.3,23.0,N/A,,Overcast,90,2013-02-22 01:55:00
8:15 PM,26.8,24.3,90,30.09,10.0,East,13.8,24.2,N/A,,Overcast,90,2013-02-22 02:15:00
8:35 PM,27.0,23.9,88,30.09,10.0,East,15.0,26.5,N/A,,Overcast,90,2013-02-22 02:35:00
9:15 PM,27.0,23.9,88,30.06,10.0,East,16.1,21.9,N/A,,Overcast,80,2013-02-22 03:15:00
9:35 PM,27.0,23.9,88,30.05,10.0,East,16.1,26.5,N/A,,Overcast,80,2013-02-22 03:35:00
9:55 PM,27.1,23.7,87,30.05,10.0,East,13.8,21.9,N/A,,Overcast,80,2013-02-22 03:55:00
10:15 PM,27.3,23.7,86,30.05,10.0,East,13.8,21.9,N/A,,Overcast,90,2013-02-22 04:15:00
10:35 PM,27.5,22.1,80,30.05,10.0,East,16.1,20.7,N/A,,Overcast,100,2013-02-22 04:35:00
10:55 PM,27.3,21.9,80,30.05,10.0,East,9.2,20.7,N/A,,Overcast,90,2013-02-22 04:55:00
11:15 PM,26.6,22.1,83,30.04,2.5,East,11.5,-,N/A,,Overcast,90,2013-02-22 05:15:00
11:35 PM,26.4,23.2,88,30.03,2.5,East,11.5,17.3,N/A,,Overcast,80,2013-02-22 05:35:00